Regional Weather Roundup
Issued by NWS Cleveland, OH

Home | Current Version | Previous Version | Text Only | Print | Product List | Glossary Off
Versions: 1 2 3 4 5 6 7 8 9 10 11 12 13 14 15 16 17 18 19 20 21 22 23 24 25 26 27 28 29 30 31 32 33 34 35 36 37 38 39 40 41 42 43 44 45 46 47 48 49 50

000
ASUS41 KCLE 300700
RWRCLE
OHIO REGIONAL WEATHER ROUNDUP
NATIONAL WEATHER SERVICE WILMINGTON, OH
300 AM EDT TUE SEP 30 2014

NOTE: "FAIR" INDICATES FEW OR NO CLOUDS BELOW 12,000 FEET WITH NO
SIGNIFICANT WEATHER AND/OR OBSTRUCTIONS TO VISIBILITY.

OHZ001>008-015>018-024>027-034-035-043-044-300800-
   NORTHWEST OHIO

CITY           SKY/WX    TMP DP  RH WIND       PRES   REMARKS
DEFIANCE       PTCLDY    60  55  83 CALM      29.91S
FINDLAY        CLEAR     56  51  84 SW5       29.88S
TOLEDO EXPRESS CLOUDY    61  55  81 W3        29.89R
TOLEDO METCALF CLOUDY    61  54  77 W6        29.89S
LIMA           PTCLDY    60  52  74 CALM      29.90F
$$

OHZ009>014-019>023-028>033-038-089-300800-
   NORTHEAST OHIO

CITY           SKY/WX    TMP DP  RH WIND       PRES   REMARKS
CLE-HOPKINS    PTCLDY    55  51  86 SW3       29.89F
CLE-LAKEFRONT  CLEAR     62  54  74 SE12      29.86F
CUY CO. ARPT   NOT AVBL
LORAIN-ELYRIA  CLEAR     58  53  84 SW3       29.88F
ASHTABULA      CLEAR     53  52  96 CALM      29.90F FOG
AKRON-CANTON   CLEAR     59  52  77 SE3       29.90F
WOOSTER        FOG       50  46  87 CALM      29.91F VSB 1/4
MANSFIELD      CLEAR     52  51  97 S5        29.91F
YOUNGSTOWN     CLEAR     54  52  93 S3        29.90F
$$

OHZ042-051>053-060>062-070>072-077>081-300800-
  SOUTHWEST OHIO

CITY           SKY/WX    TMP DP  RH WIND       PRES   REMARKS
CINC-COVINGTON CLEAR     55  53  93 S3        29.94S
CINC-LUNKEN    CLEAR     52  51  97 CALM      29.94S FOG
HAMILTON       CLEAR     50  49  96 CALM      29.94F
DAYTON         NOT AVBL
WRIGHT-PAT AFB CLEAR     52  50  93 CALM      29.92F
DAYTON GENERAL CLEAR     58  50  75 CALM      29.93S
WILMINGTON     CLEAR     52  48  86 CALM      29.93S
$$

OHZ036-037-039>041-045>050-054>059-063>069-073>076-082>088-300800-
  CENTRAL AND SOUTHEAST OHIO

CITY           SKY/WX    TMP DP  RH WIND       PRES   REMARKS
COLUMBUS       CLEAR     55  52  89 CALM      29.91S
OSU AIRPORT    CLEAR     54  50  86 CALM      29.91S
BOLTON FIELD   NOT AVBL
RICKENBACK AFB NOT AVBL
NEWARK         CLEAR     48  46  93 CALM      29.91S FOG
MARION         CLEAR     53  48  83 S3        29.91S
LANCASTER      CLEAR     49  46  90 CALM      29.92S
ZANESVILLE     PTCLDY    52  49  89 CALM      29.91S FOG
NEW PHILLY     PTCLDY    53  52  96 CALM      29.91S FOG
$$


USA.gov is the U.S. government's official web portal to all federal, state and local government web resources and services.